• In Deutschland
  • Länderverzeichnis
  • Für 7 Tage
  • Wassertemperatur
  • Satellitenkarten
  • Wetterkarte
  • Widgets
  • user-avatar
    Anmelden

    Stündliche Wetter Baku

    Heute, 19 November, Sonntag

    Zeit Temperatur Niederschläge Wind Luftdruck Luftfeuchtigkeit
    00:00 +14°C° 0,1 mm 6 m/S 765 mmHg 72%
    01:00 +14°C° 0 mm 6 m/S 765 mmHg 72%
    02:00 +14°C° 0 mm 6 m/S 765 mmHg 73%
    03:00 +13°C° 0 mm 6 m/S 765 mmHg 74%
    04:00 +13°C° 0 mm 6 m/S 764 mmHg 73%
    05:00 +13°C° 0 mm 6 m/S 764 mmHg 73%
    06:00 +13°C° 0 mm 6 m/S 764 mmHg 73%
    07:00 +14°C° 0 mm 6 m/S 764 mmHg 70%
    08:00 +14°C° 0 mm 7 m/S 764 mmHg 68%
    09:00 +15°C° 0 mm 6 m/S 764 mmHg 65%
    10:00 +16°C° 0 mm 7 m/S 763 mmHg 63%
    11:00 +16°C° 0 mm 7 m/S 763 mmHg 62%
    12:00 +17°C° 0 mm 7 m/S 763 mmHg 60%
    13:00 +17°C° 0 mm 7 m/S 762 mmHg 59%
    14:00 +17°C° 0 mm 7 m/S 762 mmHg 59%
    15:00 +17°C° 0 mm 7 m/S 761 mmHg 59%
    16:00 +17°C° 0 mm 7 m/S 761 mmHg 62%
    17:00 +16°C° 0 mm 7 m/S 761 mmHg 66%
    18:00 +16°C° 0 mm 7 m/S 761 mmHg 69%
    19:00 +15°C° 0 mm 7 m/S 761 mmHg 69%
    20:00 +15°C° 0 mm 7 m/S 761 mmHg 69%
    21:00 +15°C° 0 mm 7 m/S 760 mmHg 69%
    22:00 +15°C° 0 mm 6 m/S 760 mmHg 67%
    23:00 +15°C° 0 mm 6 m/S 760 mmHg 65%

    Morgen, 20 November, Montag

    Zeit Temperatur Niederschläge Wind Luftdruck Luftfeuchtigkeit
    00:00 +15°C° 0 mm 6 m/S 760 mmHg 63%
    01:00 +15°C° 0 mm 7 m/S 759 mmHg 62%
    02:00 +15°C° 0 mm 7 m/S 759 mmHg 60%
    03:00 +14°C° 0 mm 7 m/S 759 mmHg 59%
    04:00 +14°C° 0 mm 7 m/S 758 mmHg 56%
    05:00 +13°C° 0 mm 8 m/S 758 mmHg 53%
    06:00 +13°C° 0 mm 8 m/S 758 mmHg 50%
    07:00 +15°C° 0 mm 8 m/S 758 mmHg 46%
    08:00 +16°C° 0 mm 9 m/S 758 mmHg 43%
    09:00 +16°C° 0 mm 9 m/S 758 mmHg 39%
    10:00 +17°C° 0 mm 9 m/S 758 mmHg 37%
    11:00 +18°C° 0 mm 8 m/S 758 mmHg 35%
    12:00 +21°C° 0 mm 8 m/S 757 mmHg 32%
    13:00 +21°C° 0 mm 8 m/S 757 mmHg 32%
    14:00 +21°C° 0 mm 8 m/S 757 mmHg 32%
    15:00 +21°C° 0 mm 7 m/S 757 mmHg 31%
    16:00 +20°C° 0 mm 7 m/S 757 mmHg 34%
    17:00 +20°C° 0 mm 7 m/S 757 mmHg 36%
    18:00 +18°C° 0 mm 7 m/S 757 mmHg 39%
    19:00 +18°C° 0 mm 7 m/S 757 mmHg 39%
    20:00 +18°C° 0 mm 7 m/S 757 mmHg 40%
    21:00 +17°C° 0 mm 7 m/S 757 mmHg 41%
    22:00 +17°C° 0 mm 7 m/S 757 mmHg 41%
    23:00 +17°C° 0 mm 7 m/S 756 mmHg 41%

    übermorgen, 21 November, Dienstag

    Zeit Temperatur Niederschläge Wind Luftdruck Luftfeuchtigkeit
    00:00 +17°C° 0 mm 7 m/S 756 mmHg 42%
    01:00 +16°C° 0 mm 7 m/S 756 mmHg 41%
    02:00 +16°C° 0 mm 6 m/S 756 mmHg 41%
    03:00 +16°C° 0 mm 6 m/S 755 mmHg 40%
    04:00 +16°C° 0 mm 6 m/S 755 mmHg 40%
    05:00 +16°C° 0 mm 6 m/S 755 mmHg 39%
    06:00 +16°C° 0 mm 6 m/S 755 mmHg 39%
    07:00 +17°C° 0 mm 7 m/S 755 mmHg 38%
    08:00 +17°C° 0 mm 7 m/S 755 mmHg 36%
    09:00 +18°C° 0 mm 7 m/S 755 mmHg 35%
    10:00 +20°C° 0 mm 7 m/S 754 mmHg 34%
    11:00 +21°C° 0 mm 7 m/S 754 mmHg 32%
    12:00 +22°C° 0 mm 7 m/S 754 mmHg 31%
    13:00 +22°C° 0 mm 7 m/S 753 mmHg 32%
    14:00 +21°C° 0 mm 7 m/S 753 mmHg 33%
    15:00 +21°C° 0 mm 7 m/S 753 mmHg 34%
    16:00 +20°C° 0 mm 7 m/S 752 mmHg 36%
    17:00 +20°C° 0 mm 7 m/S 752 mmHg 38%
    18:00 +18°C° 0 mm 7 m/S 752 mmHg 40%
    19:00 +18°C° 0 mm 7 m/S 752 mmHg 40%
    20:00 +18°C° 0 mm 7 m/S 752 mmHg 40%
    21:00 +18°C° 0 mm 7 m/S 752 mmHg 40%
    22:00 +17°C° 0 mm 7 m/S 751 mmHg 41%
    23:00 +17°C° 0 mm 7 m/S 751 mmHg 41%

    22 November, Mittwoch

    Zeit Temperatur Niederschläge Wind Luftdruck Luftfeuchtigkeit
    00:00 +17°C° 0 mm 7 m/S 751 mmHg 41%
    01:00 +16°C° 0 mm 6 m/S 751 mmHg 41%
    02:00 +16°C° 0 mm 6 m/S 750 mmHg 41%
    03:00 +16°C° 0 mm 6 m/S 750 mmHg 41%
    04:00 +16°C° 0 mm 6 m/S 750 mmHg 40%
    05:00 +16°C° 0 mm 6 m/S 750 mmHg 40%
    06:00 +16°C° 0 mm 7 m/S 750 mmHg 39%
    07:00 +16°C° 0 mm 7 m/S 751 mmHg 44%
    08:00 +16°C° 0 mm 8 m/S 752 mmHg 49%
    09:00 +16°C° 0 mm 8 m/S 752 mmHg 54%
    10:00 +14°C° 0 mm 10 m/S 753 mmHg 59%
    11:00 +14°C° 0 mm 12 m/S 753 mmHg 64%
    12:00 +14°C° 0 mm 13 m/S 754 mmHg 70%
    13:00 +13°C° 0 mm 14 m/S 754 mmHg 69%
    14:00 +13°C° 0 mm 14 m/S 755 mmHg 69%
    15:00 +12°C° 0 mm 14 m/S 755 mmHg 68%
    16:00 +12°C° 0 mm 14 m/S 756 mmHg 69%
    17:00 +10°C° 0 mm 14 m/S 757 mmHg 70%
    18:00 +10°C° 0 mm 14 m/S 757 mmHg 70%
    19:00 +9°C° 0,1 mm 13 m/S 758 mmHg 71%
    20:00 +9°C° 0,1 mm 13 m/S 758 mmHg 72%
    21:00 +8°C° 0,1 mm 12 m/S 759 mmHg 74%
    22:00 +8°C° 0 mm 12 m/S 759 mmHg 74%
    23:00 +8°C° 0 mm 11 m/S 759 mmHg 74%

    23 November, Donnerstag

    Zeit Temperatur Niederschläge Wind Luftdruck Luftfeuchtigkeit
    00:00 +8°C° 0 mm 11 m/S 759 mmHg 75%
    01:00 +8°C° 0,1 mm 10 m/S 759 mmHg 75%
    02:00 +8°C° 0,1 mm 10 m/S 759 mmHg 75%
    03:00 +7°C° 0,1 mm 9 m/S 759 mmHg 75%
    04:00 +7°C° 0,1 mm 9 m/S 759 mmHg 75%
    05:00 +7°C° 0,1 mm 8 m/S 760 mmHg 75%
    06:00 +7°C° 0,1 mm 8 m/S 760 mmHg 75%
    07:00 +7°C° 0 mm 8 m/S 760 mmHg 73%
    08:00 +7°C° 0 mm 8 m/S 761 mmHg 71%
    09:00 +9°C° 0 mm 7 m/S 761 mmHg 68%
    10:00 +9°C° 0 mm 7 m/S 761 mmHg 66%
    11:00 +9°C° 0 mm 7 m/S 761 mmHg 63%
    12:00 +10°C° 0 mm 7 m/S 761 mmHg 60%
    13:00 +10°C° 0 mm 6 m/S 761 mmHg 59%
    14:00 +10°C° 0 mm 6 m/S 761 mmHg 59%
    15:00 +10°C° 0 mm 6 m/S 761 mmHg 58%
    16:00 +10°C° 0 mm 6 m/S 762 mmHg 59%
    17:00 +10°C° 0 mm 6 m/S 762 mmHg 60%
    18:00 +9°C° 0 mm 6 m/S 763 mmHg 61%
    19:00 +9°C° 0 mm 7 m/S 763 mmHg 62%
    20:00 +9°C° 0 mm 7 m/S 763 mmHg 64%
    21:00 +9°C° 0 mm 7 m/S 763 mmHg 66%
    22:00 +9°C° 0,1 mm 7 m/S 763 mmHg 67%
    23:00 +8°C° 0,1 mm 7 m/S 763 mmHg 68%

    24 November, Freitag

    Zeit Temperatur Niederschläge Wind Luftdruck Luftfeuchtigkeit
    00:00 +8°C° 0,1 mm 7 m/S 763 mmHg 69%
    01:00 +8°C° 0,3 mm 6 m/S 763 mmHg 69%
    02:00 +8°C° 0,3 mm 5 m/S 763 mmHg 70%
    03:00 +8°C° 0,3 mm 5 m/S 763 mmHg 71%
    04:00 +8°C° 0,4 mm 5 m/S 764 mmHg 73%
    05:00 +7°C° 0,4 mm 5 m/S 764 mmHg 75%
    06:00 +7°C° 0,4 mm 5 m/S 764 mmHg 77%
    07:00 +7°C° 0,2 mm 5 m/S 765 mmHg 76%
    08:00 +7°C° 0,2 mm 6 m/S 765 mmHg 74%
    09:00 +6°C° 0,2 mm 7 m/S 765 mmHg 73%
    10:00 +8°C° 0,1 mm 7 m/S 765 mmHg 70%
    11:00 +8°C° 0,1 mm 7 m/S 765 mmHg 68%
    12:00 +7°C° 0,1 mm 8 m/S 765 mmHg 65%
    13:00 +7°C° 0,1 mm 8 m/S 765 mmHg 66%
    14:00 +7°C° 0,1 mm 8 m/S 765 mmHg 66%
    15:00 +7°C° 0,1 mm 9 m/S 765 mmHg 67%
    16:00 +7°C° 0 mm 8 m/S 766 mmHg 69%
    17:00 +6°C° 0 mm 8 m/S 766 mmHg 70%
    18:00 +6°C° 0 mm 8 m/S 767 mmHg 72%
    19:00 +6°C° 0 mm 8 m/S 767 mmHg 72%
    20:00 +6°C° 0 mm 7 m/S 767 mmHg 71%
    21:00 +6°C° 0 mm 7 m/S 768 mmHg 71%
    22:00 +7°C° 0 mm 6 m/S 767 mmHg 69%
    23:00 +7°C° 0 mm 6 m/S 767 mmHg 67%
    Mehr zeigen